Regional Weather Roundup
Issued by NWS Cleveland, OH

Home | Current Version | Previous Version | Graphics & Text | Print | Product List | Glossary On
Versions: 1 2 3 4 5 6 7 8 9 10 11 12 13 14 15 16 17 18 19 20 21 22 23 24 25 26 27 28 29 30 31 32 33 34 35 36 37 38 39 40 41 42 43 44 45 46 47 48 49 50
000
ASUS41 KCLE 050502
RWRCLE
OHIO REGIONAL WEATHER ROUNDUP
NATIONAL WEATHER SERVICE CLEVELAND, OH
100 AM EDT WED AUG 05 2015

NOTE: "FAIR" INDICATES FEW OR NO CLOUDS BELOW 12,000 FEET WITH NO
SIGNIFICANT WEATHER AND/OR OBSTRUCTIONS TO VISIBILITY.

OHZ001>008-015>018-024>027-034-035-043-044-050600-
   NORTHWEST OHIO

CITY           SKY/WX    TMP DP  RH WIND       PRES   REMARKS
DEFIANCE       MOCLDY    65  58  78 CALM      30.03R
FINDLAY        PTCLDY    65  59  81 W3        30.02R
TOLEDO EXPRESS CLEAR     64  56  75 W5        30.01S
TOLEDO EXEC    CLEAR     65  55  70 W5        30.02R
LIMA           PTCLDY    62  59  90 CALM      30.04R
$$

OHZ009>014-019>023-028>033-038-089-050600-
   NORTHEAST OHIO

CITY           SKY/WX    TMP DP  RH WIND       PRES   REMARKS
CLE-HOPKINS    MOCLDY    65  59  81 SW5       30.01S
CLE-LAKEFRONT  CLEAR     70  60  70 SW9       29.97S
CUY CO. ARPT   NOT AVBL
LORAIN-ELYRIA  CLEAR     64  58  80 W3        30.01R
ASHTABULA      PTCLDY    60  58  92 CALM      29.99S
AKRON-CANTON   PTCLDY    64  56  75 NW6       30.01R
WOOSTER        CLEAR     59  56  89 CALM      30.03R
MANSFIELD      PTCLDY    66  58  75 W6        30.04R
YOUNGSTOWN     MOCLDY    61  57  87 CALM      30.00S
$$

OHZ042-051>053-060>062-070>072-077>081-050600-
  SOUTHWEST OHIO

CITY           SKY/WX    TMP DP  RH WIND       PRES   REMARKS
CINC-COVINGTON CLOUDY    73  60  63 N3        30.01F
CINC-LUNKEN    CLOUDY    67  65  93 N3        30.02S
HAMILTON       CLOUDY    67  64  90 N7        30.03S
DAYTON         MOCLDY    67  60  78 NW6       30.04S
WRIGHT-PAT AFB MOCLDY    66  61  82 VRB1      30.03R
DAYTON GENERAL CLOUDY    68  61  78 CALM      30.03R
WILMINGTON     CLOUDY    71  60  68 NW5       30.03S
$$

OHZ036-037-039>041-045>050-054>059-063>069-073>076-082>088-050600-
  CENTRAL AND SOUTHEAST OHIO

CITY           SKY/WX    TMP DP  RH WIND       PRES   REMARKS
COLUMBUS       MOCLDY    67  59  75 CALM      30.02R
OSU AIRPORT    MOCLDY    69  59  70 CALM      30.03R
BOLTON FIELD   NOT AVBL
RICKENBACK AFB MOCLDY    66  60  82 CALM      30.02S
NEWARK         MOCLDY    62  59  90 CALM      30.03R
MARION         PTCLDY    67  59  75 W6        30.03R
LANCASTER      CLOUDY    62  59  90 CALM      30.03R
ZANESVILLE     MOCLDY    64  58  80 CALM      30.03R
NEW PHILLY     CLEAR     60  59  96 CALM      30.03R
$$



USA.gov is the U.S. government's official web portal to all federal, state and local government web resources and services.